When you browse on this site, cookies collect data to enhance your experience and personalize the content and advertising you see.
Visit our Privacy Policy to learn more. By continuing to use the site, you agree to this use of cookies and data.
  • en Suisse
  • Liste des pays
  • À 7 jours
  • Température de l'eau
  • Carte satellitaire
  • Carte météo
  • Widgets météo
  • user-avatar
    Se connecter

    Météo par heure à Krzyz

    Ce jour, 22 Mai, Mercredi

    Heure Température Précipitation Vent Pression Humidité
    00:00 +14°C° 0 mm 2 m/s 736 mmHg 95%
    01:00 +13°C° 0 mm 3 m/s 735 mmHg 96%
    02:00 +13°C° 0 mm 2 m/s 736 mmHg 96%
    03:00 +12°C° 0 mm 2 m/s 736 mmHg 96%
    04:00 +12°C° 0 mm 2 m/s 736 mmHg 96%
    05:00 +12°C° 0 mm 3 m/s 736 mmHg 93%
    06:00 +13°C° 0 mm 3 m/s 736 mmHg 90%
    07:00 +14°C° 0 mm 4 m/s 736 mmHg 86%
    08:00 +15°C° 0 mm 4 m/s 737 mmHg 81%
    09:00 +16°C° 0 mm 5 m/s 737 mmHg 77%
    10:00 +17°C° 0 mm 5 m/s 737 mmHg 72%
    11:00 +19°C° 0.3 mm 5 m/s 738 mmHg 71%
    12:00 +19°C° 0.3 mm 5 m/s 738 mmHg 69%
    13:00 +20°C° 0.3 mm 5 m/s 738 mmHg 67%
    14:00 +20°C° 0.9 mm 5 m/s 738 mmHg 70%
    15:00 +19°C° 0.9 mm 6 m/s 738 mmHg 74%
    16:00 +19°C° 0.9 mm 6 m/s 739 mmHg 77%
    17:00 +17°C° 1.1 mm 6 m/s 739 mmHg 82%
    18:00 +16°C° 1.1 mm 7 m/s 739 mmHg 86%
    19:00 +15°C° 1.1 mm 7 m/s 739 mmHg 90%
    20:00 +15°C° 0.5 mm 8 m/s 740 mmHg 91%
    21:00 +13°C° 0.5 mm 8 m/s 740 mmHg 93%
    22:00 +13°C° 0.5 mm 8 m/s 741 mmHg 94%
    23:00 +12°C° 0.2 mm 8 m/s 741 mmHg 94%

    Demain, 23 Mai, Jeudi

    Heure Température Précipitation Vent Pression Humidité
    00:00 +12°C° 0.2 mm 7 m/s 741 mmHg 94%
    01:00 +12°C° 0.2 mm 7 m/s 741 mmHg 94%
    02:00 +12°C° 0.1 mm 7 m/s 742 mmHg 94%
    03:00 +11°C° 0.1 mm 7 m/s 742 mmHg 94%
    04:00 +11°C° 0.1 mm 7 m/s 742 mmHg 94%
    05:00 +11°C° 0.1 mm 7 m/s 742 mmHg 94%
    06:00 +11°C° 0.1 mm 7 m/s 743 mmHg 94%
    07:00 +10°C° 0.1 mm 7 m/s 743 mmHg 93%
    08:00 +11°C° 0.1 mm 7 m/s 744 mmHg 92%
    09:00 +11°C° 0.1 mm 7 m/s 744 mmHg 91%
    10:00 +11°C° 0.1 mm 7 m/s 744 mmHg 90%
    11:00 +11°C° 0.1 mm 7 m/s 744 mmHg 88%
    12:00 +12°C° 0.1 mm 7 m/s 745 mmHg 87%
    13:00 +12°C° 0.1 mm 7 m/s 745 mmHg 85%
    14:00 +13°C° 0 mm 6 m/s 745 mmHg 83%
    15:00 +14°C° 0 mm 5 m/s 745 mmHg 82%
    16:00 +14°C° 0 mm 4 m/s 745 mmHg 80%
    17:00 +14°C° 0 mm 4 m/s 745 mmHg 80%
    18:00 +14°C° 0 mm 4 m/s 745 mmHg 80%
    19:00 +14°C° 0 mm 3 m/s 745 mmHg 80%
    20:00 +14°C° 0 mm 3 m/s 745 mmHg 77%
    21:00 +13°C° 0 mm 3 m/s 745 mmHg 74%
    22:00 +13°C° 0 mm 4 m/s 746 mmHg 71%
    23:00 +13°C° 0 mm 4 m/s 746 mmHg 68%

    Après-demain, 24 Mai, Vendredi

    Heure Température Précipitation Vent Pression Humidité
    00:00 +12°C° 0 mm 4 m/s 746 mmHg 65%
    01:00 +11°C° 0 mm 4 m/s 746 mmHg 63%
    02:00 +10°C° 0 mm 3 m/s 746 mmHg 66%
    03:00 +9°C° 0 mm 3 m/s 745 mmHg 70%
    04:00 +8°C° 0 mm 3 m/s 745 mmHg 73%
    05:00 +9°C° 0 mm 3 m/s 745 mmHg 74%
    06:00 +10°C° 0 mm 3 m/s 745 mmHg 74%
    07:00 +11°C° 0 mm 3 m/s 746 mmHg 74%
    08:00 +13°C° 0 mm 3 m/s 745 mmHg 69%
    09:00 +16°C° 0 mm 3 m/s 745 mmHg 63%
    10:00 +18°C° 0 mm 4 m/s 745 mmHg 58%
    11:00 +18°C° 0 mm 4 m/s 745 mmHg 56%
    12:00 +19°C° 0 mm 4 m/s 745 mmHg 54%
    13:00 +20°C° 0 mm 4 m/s 744 mmHg 52%
    14:00 +20°C° 0 mm 3 m/s 744 mmHg 54%
    15:00 +20°C° 0 mm 3 m/s 744 mmHg 55%
    16:00 +20°C° 0 mm 3 m/s 743 mmHg 57%
    17:00 +19°C° 0 mm 2 m/s 743 mmHg 62%
    18:00 +18°C° 0 mm 2 m/s 743 mmHg 68%
    19:00 +18°C° 0 mm 1 m/s 743 mmHg 74%
    20:00 +16°C° 0 mm 1 m/s 743 mmHg 77%
    21:00 +15°C° 0 mm 1 m/s 743 mmHg 81%
    22:00 +13°C° 0 mm 0 m/s 743 mmHg 84%
    23:00 +13°C° 0 mm 1 m/s 743 mmHg 85%

    25 Mai, Samedi

    Heure Température Précipitation Vent Pression Humidité
    00:00 +13°C° 0 mm 1 m/s 743 mmHg 85%
    01:00 +13°C° 0 mm 2 m/s 743 mmHg 86%
    02:00 +12°C° 0 mm 2 m/s 743 mmHg 87%
    03:00 +12°C° 0 mm 2 m/s 743 mmHg 88%
    04:00 +10°C° 0 mm 2 m/s 743 mmHg 89%
    05:00 +13°C° 0 mm 2 m/s 743 mmHg 85%
    06:00 +13°C° 0 mm 3 m/s 743 mmHg 80%
    07:00 +16°C° 0 mm 3 m/s 743 mmHg 75%
    08:00 +17°C° 0.1 mm 3 m/s 743 mmHg 71%
    09:00 +19°C° 0.1 mm 4 m/s 743 mmHg 67%
    10:00 +20°C° 0.1 mm 4 m/s 743 mmHg 63%
    11:00 +20°C° 0.1 mm 4 m/s 743 mmHg 63%
    12:00 +21°C° 0.1 mm 4 m/s 743 mmHg 62%
    13:00 +21°C° 0.1 mm 5 m/s 743 mmHg 61%
    14:00 +20°C° 0.1 mm 4 m/s 742 mmHg 63%
    15:00 +20°C° 0.1 mm 4 m/s 742 mmHg 66%
    16:00 +20°C° 0.1 mm 4 m/s 742 mmHg 68%
    17:00 +19°C° 0 mm 3 m/s 742 mmHg 70%
    18:00 +18°C° 0 mm 2 m/s 742 mmHg 72%
    19:00 +17°C° 0 mm 2 m/s 742 mmHg 74%
    20:00 +16°C° 0 mm 2 m/s 743 mmHg 77%
    21:00 +14°C° 0 mm 2 m/s 743 mmHg 81%
    22:00 +13°C° 0 mm 2 m/s 743 mmHg 85%
    23:00 +12°C° 0 mm 2 m/s 743 mmHg 87%

    26 Mai, Dimanche

    Heure Température Précipitation Vent Pression Humidité
    00:00 +10°C° 0 mm 2 m/s 743 mmHg 89%
    01:00 +11°C° 0 mm 1 m/s 743 mmHg 92%
    02:00 +9°C° 0 mm 2 m/s 743 mmHg 92%
    03:00 +9°C° 0 mm 2 m/s 743 mmHg 92%
    04:00 +9°C° 0 mm 2 m/s 743 mmHg 92%
    05:00 +10°C° 0 mm 3 m/s 743 mmHg 87%
    06:00 +11°C° 0 mm 4 m/s 743 mmHg 82%
    07:00 +13°C° 0 mm 4 m/s 743 mmHg 77%
    08:00 +13°C° 0 mm 5 m/s 743 mmHg 73%
    09:00 +14°C° 0 mm 6 m/s 742 mmHg 69%
    10:00 +15°C° 0 mm 6 m/s 742 mmHg 65%
    11:00 +15°C° 0 mm 7 m/s 742 mmHg 62%
    12:00 +15°C° 0 mm 7 m/s 742 mmHg 60%
    13:00 +15°C° 0 mm 7 m/s 742 mmHg 57%
    14:00 +16°C° 0 mm 7 m/s 742 mmHg 57%
    15:00 +16°C° 0 mm 7 m/s 742 mmHg 56%
    16:00 +16°C° 0 mm 7 m/s 742 mmHg 56%
    17:00 +15°C° 0 mm 6 m/s 742 mmHg 62%
    18:00 +14°C° 0 mm 5 m/s 742 mmHg 67%
    19:00 +13°C° 0 mm 4 m/s 742 mmHg 72%
    20:00 +11°C° 0 mm 4 m/s 742 mmHg 76%
    21:00 +10°C° 0 mm 4 m/s 743 mmHg 79%
    22:00 +9°C° 0 mm 3 m/s 743 mmHg 82%
    23:00 +9°C° 0 mm 3 m/s 743 mmHg 86%

    27 Mai, Lundi

    Heure Température Précipitation Vent Pression Humidité
    00:00 +8°C° 0 mm 3 m/s 743 mmHg 90%
    01:00 +8°C° 0 mm 3 m/s 743 mmHg 93%
    02:00 +7°C° 0 mm 3 m/s 743 mmHg 94%
    03:00 +7°C° 0 mm 3 m/s 743 mmHg 95%
    04:00 +7°C° 0 mm 3 m/s 743 mmHg 96%
    05:00 +8°C° 0 mm 3 m/s 743 mmHg 90%
    06:00 +10°C° 0 mm 3 m/s 743 mmHg 83%
    07:00 +11°C° 0 mm 3 m/s 743 mmHg 77%
    08:00 +13°C° 0 mm 3 m/s 743 mmHg 73%
    09:00 +14°C° 0 mm 3 m/s 743 mmHg 69%
    10:00 +17°C° 0 mm 3 m/s 743 mmHg 65%
    11:00 +18°C° 0 mm 3 m/s 742 mmHg 63%
    12:00 +19°C° 0 mm 3 m/s 742 mmHg 61%
    13:00 +20°C° 0 mm 3 m/s 741 mmHg 59%
    14:00 +21°C° 0 mm 3 m/s 741 mmHg 58%
    15:00 +21°C° 0 mm 3 m/s 740 mmHg 57%
    16:00 +22°C° 0 mm 3 m/s 740 mmHg 57%
    17:00 +21°C° 0 mm 3 m/s 739 mmHg 62%
    18:00 +20°C° 0 mm 3 m/s 739 mmHg 68%
    19:00 +19°C° 0 mm 2 m/s 739 mmHg 74%
    20:00 +18°C° 0 mm 2 m/s 739 mmHg 77%
    21:00 +17°C° 0 mm 3 m/s 739 mmHg 80%
    22:00 +16°C° 0 mm 3 m/s 739 mmHg 82%
    23:00 +14°C° 0 mm 3 m/s 738 mmHg 85%
    Voir plus